Weather History for Clinton, MO

Change the Weather History Date:

Thursday, January 24, 2013

  Actual Average (KSZL) Record (KSZL)
Temperature  
Mean Temperature 24 °F -  
Max Temperature 32 °F 37 °F 57 °F (2006)
Min Temperature 17 °F 20 °F 1 °F (2008)
Degree Days  
Heating Degree Days 40    
Moisture  
Dew Point 12 °F    
Average Humidity 54    
Maximum Humidity 69    
Minimum Humidity 38    
Precipitation  
Precipitation 0.00 in - - ()
Sea Level Pressure  
Sea Level Pressure 30.36 in    
Wind  
Wind Speed 10 mph (ENE)    
Max Wind Speed 16 mph    
Max Gust Speed 21 mph    
Visibility 10 miles    
Events      
Averages and records for this station are not official NWS values.
T = Trace of Precipitation, MM = Missing Value Source: NWS Daily Summary

Daily Weather History Graph

Daily Weather History Graph

Search for Another Location

Airport:

Trip Planner

Search our weather history database for the weather conditions in past years. The results will help you decide how hot, cold, wet, or windy it might be!

Date:

Astronomy

Jan. 24, 2013 Rise Set
Actual Time 7:25 AM CST 5:28 PM CST
Civil Twilight 6:57 AM CST 5:56 PM CST
Nautical Twilight 6:25 AM CST 6:28 PM CST
Astronomical Twilight 5:53 AM CST 7:00 PM CST
Moon 3:31 PM CST (1/24) 5:23 AM CST (1/24)
Length of Visible Light 10h 59m
Length of Day
10h 02m
Waxing Gibbous, 94% of the Moon is Illuminated
Jan 24
Waxing Gibbous
Jan 26
Full
Feb 3
Last Quarter
Feb 10
New
Feb 17
First Quarter

Hourly Weather History & Observations

Time (CST) Temp. Windchill Dew Point Humidity Pressure Visibility Wind Dir Wind Speed Gust Speed Precip Events Conditions
12:15 AM 30.2 °F 20.8 °F 19.4 °F 64% 30.40 in 10.0 mi NNE 11.5 mph - N/A   Clear
12:35 AM 28.4 °F 19.1 °F 19.4 °F 69% 30.40 in 10.0 mi NNE 10.4 mph - N/A   Clear
12:55 AM 28.4 °F 19.1 °F 17.6 °F 64% 30.42 in 10.0 mi NNE 10.4 mph - N/A   Clear
1:15 AM 28.4 °F 19.1 °F 17.6 °F 64% 30.41 in 10.0 mi NNE 10.4 mph - N/A   Clear
1:35 AM 28.4 °F 19.7 °F 17.6 °F 64% 30.41 in 10.0 mi NNE 9.2 mph - N/A   Clear
1:55 AM 26.6 °F 19.1 °F 17.6 °F 69% 30.42 in 10.0 mi NNE 6.9 mph - N/A   Clear
2:15 AM 26.6 °F 16.2 °F 15.8 °F 64% 30.42 in 10.0 mi NNE 11.5 mph 16.1 mph N/A   Clear
2:35 AM 26.6 °F 15.7 °F 17.6 °F 69% 30.43 in 10.0 mi NNE 12.7 mph - N/A   Clear
2:55 AM 24.8 °F 13.4 °F 15.8 °F 69% 30.43 in 10.0 mi NNE 12.7 mph - N/A   Clear
3:15 AM 24.8 °F 13.4 °F 14.0 °F 64% 30.44 in 10.0 mi NNE 12.7 mph - N/A   Clear
3:35 AM 23.0 °F 14.7 °F 14.0 °F 68% 30.45 in 10.0 mi NNE 6.9 mph - N/A   Clear
3:55 AM 23.0 °F 11.1 °F 14.0 °F 68% 30.45 in 10.0 mi NNE 12.7 mph - N/A   Clear
4:15 AM 21.2 °F 7.8 °F 12.2 °F 68% 30.44 in 10.0 mi NE 15.0 mph 19.6 mph N/A   Clear
4:35 AM 21.2 °F 10.1 °F 10.4 °F 63% 30.44 in 10.0 mi NE 10.4 mph - N/A   Clear
4:55 AM 21.2 °F 9.5 °F 10.4 °F 63% 30.45 in 10.0 mi NE 11.5 mph - N/A   Clear
5:15 AM 19.4 °F 6.6 °F 10.4 °F 68% 30.45 in 10.0 mi NNE 12.7 mph - N/A   Clear
5:35 AM 19.4 °F 5.5 °F 8.6 °F 63% 30.45 in 10.0 mi NNE 15.0 mph 19.6 mph N/A   Clear
5:55 AM 19.4 °F 7.9 °F 8.6 °F 63% 30.46 in 10.0 mi NE 10.4 mph 17.3 mph N/A   Clear
6:15 AM 19.4 °F 8.6 °F 8.6 °F 63% 30.46 in 10.0 mi NE 9.2 mph - N/A   Clear
6:35 AM 19.4 °F 7.9 °F 8.6 °F 63% 30.45 in 10.0 mi NE 10.4 mph - N/A   Clear
6:55 AM 17.6 °F 5.0 °F 8.6 °F 68% 30.45 in 10.0 mi NE 11.5 mph - N/A   Clear
7:15 AM 17.6 °F 3.2 °F 6.8 °F 63% 30.47 in 10.0 mi ENE 15.0 mph 19.6 mph N/A   Clear
7:35 AM 17.6 °F 2.7 °F 6.8 °F 63% 30.48 in 10.0 mi ENE 16.1 mph 20.7 mph N/A   Clear
7:55 AM 17.6 °F 3.2 °F 6.8 °F 63% 30.49 in 9.0 mi ENE 15.0 mph - N/A   Clear
8:15 AM 17.6 °F 3.7 °F 8.6 °F 68% 30.49 in 9.0 mi ENE 13.8 mph - N/A   Clear
8:35 AM 17.6 °F 3.7 °F 8.6 °F 68% 30.48 in 10.0 mi ENE 13.8 mph - N/A   Clear
8:55 AM 17.6 °F 3.7 °F 8.6 °F 68% 30.50 in 9.0 mi ENE 13.8 mph 20.7 mph N/A   Clear
9:15 AM 19.4 °F 7.9 °F 8.6 °F 63% 30.48 in 9.0 mi East 10.4 mph - N/A   Clear
9:35 AM 19.4 °F 6.6 °F 8.6 °F 63% 30.49 in 10.0 mi East 12.7 mph - N/A   Clear
9:55 AM 21.2 °F 8.3 °F 8.6 °F 58% 30.49 in 9.0 mi ENE 13.8 mph - N/A   Clear
10:15 AM 21.2 °F 8.3 °F 8.6 °F 58% 30.50 in 9.0 mi ENE 13.8 mph 18.4 mph N/A   Clear
10:35 AM 21.2 °F 7.3 °F 8.6 °F 58% 30.49 in 9.0 mi ENE 16.1 mph 19.6 mph N/A   Clear
10:55 AM 23.0 °F 12.4 °F 8.6 °F 54% 30.49 in 10.0 mi East 10.4 mph - N/A   Clear
11:15 AM 23.0 °F 10.6 °F 8.6 °F 54% 30.48 in 9.0 mi East 13.8 mph - N/A   Clear
11:35 AM 24.8 °F 11.9 °F 8.6 °F 50% 30.46 in 10.0 mi ENE 16.1 mph - N/A   Clear
11:55 AM 26.6 °F 16.8 °F 8.6 °F 47% 30.45 in 9.0 mi East 10.4 mph - N/A   Clear
12:15 PM 26.6 °F 20.0 °F 8.6 °F 47% 30.43 in 9.0 mi East 5.8 mph - N/A   Clear
12:35 PM 28.4 °F 19.7 °F 8.6 °F 43% 30.43 in 9.0 mi East 9.2 mph - N/A   Clear
12:55 PM 28.4 °F 20.4 °F 8.6 °F 43% 30.39 in 9.0 mi ESE 8.1 mph - N/A   Clear
1:15 PM 30.2 °F 21.9 °F 8.6 °F 40% 30.37 in 9.0 mi ESE 9.2 mph - N/A   Clear
1:35 PM 30.2 °F 21.3 °F 8.6 °F 40% 30.36 in 9.0 mi ESE 10.4 mph - N/A   Scattered Clouds
1:55 PM 30.2 °F 20.8 °F 8.6 °F 40% 30.35 in 9.0 mi ESE 11.5 mph - N/A   Mostly Cloudy
2:15 PM 30.2 °F 22.6 °F 8.6 °F 40% 30.33 in 10.0 mi ESE 8.1 mph - N/A   Mostly Cloudy
2:35 PM 30.2 °F 21.3 °F 8.6 °F 40% 30.32 in 9.0 mi ESE 10.4 mph - N/A   Mostly Cloudy
2:55 PM 32.0 °F 23.6 °F 8.6 °F 38% 30.31 in 10.0 mi East 10.4 mph - N/A   Scattered Clouds
3:15 PM 32.0 °F 22.5 °F 10.4 °F 41% 30.30 in 9.0 mi ESE 12.7 mph - N/A   Clear
3:35 PM 32.0 °F 23.0 °F 10.4 °F 41% 30.29 in 9.0 mi ESE 11.5 mph - N/A   Clear
3:55 PM 32.0 °F 23.6 °F 10.4 °F 41% 30.29 in 9.0 mi East 10.4 mph - N/A   Scattered Clouds
4:15 PM 32.0 °F 24.2 °F 10.4 °F 41% 30.28 in 10.0 mi East 9.2 mph 16.1 mph N/A   Overcast
4:35 PM 32.0 °F 24.2 °F 10.4 °F 41% 30.27 in 9.0 mi East 9.2 mph - N/A   Overcast
4:55 PM 32.0 °F 23.6 °F 10.4 °F 41% 30.26 in 10.0 mi East 10.4 mph - N/A   Overcast
5:15 PM 32.0 °F 24.8 °F 12.2 °F 44% 30.26 in 10.0 mi East 8.1 mph - N/A   Overcast
5:35 PM 32.0 °F 24.8 °F 12.2 °F 44% 30.26 in 10.0 mi East 8.1 mph - N/A   Overcast
5:55 PM 32.0 °F 24.2 °F 12.2 °F 44% 30.25 in 10.0 mi East 9.2 mph - N/A   Overcast
6:15 PM 32.0 °F 25.6 °F 12.2 °F 44% 30.25 in 10.0 mi East 6.9 mph - N/A   Overcast
6:35 PM 32.0 °F 24.8 °F 12.2 °F 44% 30.23 in 10.0 mi East 8.1 mph - N/A   Overcast
6:55 PM 32.0 °F 24.2 °F 12.2 °F 44% 30.22 in 10.0 mi East 9.2 mph - N/A   Overcast
7:15 PM 32.0 °F 24.8 °F 12.2 °F 44% 30.22 in 10.0 mi East 8.1 mph - N/A   Overcast
7:35 PM 32.0 °F 25.6 °F 12.2 °F 44% 30.22 in 10.0 mi East 6.9 mph - N/A   Overcast
7:55 PM 32.0 °F 25.6 °F 12.2 °F 44% 30.23 in 10.0 mi East 6.9 mph - N/A   Overcast
8:15 PM 32.0 °F 26.4 °F 12.2 °F 44% 30.22 in 10.0 mi ESE 5.8 mph - N/A   Overcast
8:35 PM 32.0 °F - 14.0 °F 48% 30.22 in 10.0 mi Calm Calm - N/A   Overcast
8:55 PM 32.0 °F - 14.0 °F 48% 30.22 in 10.0 mi Calm Calm - N/A   Overcast
9:15 PM 32.0 °F 26.4 °F 14.0 °F 48% 30.20 in 10.0 mi East 5.8 mph - N/A   Overcast
9:35 PM 32.0 °F 26.4 °F 14.0 °F 48% 30.20 in 10.0 mi ENE 5.8 mph - N/A   Overcast
9:55 PM 32.0 °F - 14.0 °F 48% 30.20 in 10.0 mi Calm Calm - N/A   Overcast
10:15 PM 32.0 °F - 14.0 °F 48% 30.20 in 10.0 mi Calm Calm - N/A   Overcast
10:35 PM 32.0 °F - 15.8 °F 51% 30.19 in 10.0 mi Calm Calm - N/A   Overcast
10:55 PM 32.0 °F 27.5 °F 15.8 °F 51% 30.17 in 10.0 mi East 4.6 mph - N/A   Overcast
11:15 PM 32.0 °F - 14.0 °F 48% 30.18 in 10.0 mi Calm Calm - N/A   Overcast
11:35 PM 32.0 °F - 15.8 °F 51% 30.18 in 10.0 mi Calm Calm - N/A   Overcast
11:55 PM 32.0 °F - 17.6 °F 55% 30.18 in 10.0 mi Calm Calm - N/A   Overcast